KC3BAN-13 Weather Reports


Display with metric or nautical units.
time (UTC)temp
F
wind
direction
speed
MPH
gust
MPH
rain 1hr
in
rain 24hr
in
rain mn
in
humidity
%
barometer
mb
20260505221415 81 229 3.0 13.0 0.00 0.00 0.00 29 1002.2
20260505220909 82 242 3.0 13.0 0.00 0.00 0.00 29 1002.2
20260505220404 82 221 4.0 13.0 0.00 0.00 0.00 29 1002.3
20260505220121 82 266 3.0 13.0 0.00 0.00 0.00 29 1002.1
20260505215351 82 238 3.0 11.0 0.00 0.00 0.00 29 1002.1
20260505214845 82 227 4.0 15.0 0.00 0.00 0.00 29 1002.0
20260505214605 82 140 4.0 15.0 0.00 0.00 0.00 28 1002.0
20260505213834 82 255 3.0 11.0 0.00 0.00 0.00 29 1002.1
20260505213326 83 214 3.0 11.0 0.00 0.00 0.00 29 1002.0
20260505212821 83 175 2.0 7.0 0.00 0.00 0.00 31 1002.0
20260505212538 83 251 2.0 10.0 0.00 0.00 0.00 30 1001.9
20260505211809 83 238 3.0 10.0 0.00 0.00 0.00 31 1001.8
20260505211304 83 176 4.0 24.0 0.00 0.00 0.00 31 1001.7
20260505210757 84 220 4.0 24.0 0.00 0.00 0.00 31 1001.8
20260505210250 84 217 3.0 11.0 0.00 0.00 0.00 31 1001.8
20260505205745 85 266 2.0 11.0 0.00 0.00 0.00 30 1001.8
20260505205506 85 177 3.0 11.0 0.00 0.00 0.00 31 1001.8
20260505204734 85 191 3.0 8.0 0.00 0.00 0.00 31 1001.7
20260505204445 85 64 4.0 11.0 0.00 0.00 0.00 31 1001.7
20260505203721 85 240 4.0 11.0 0.00 0.00 0.00 29 1001.8
20260505203214 86 179 3.0 11.0 0.00 0.00 0.00 32 1001.8
20260505202709 85 125 3.0 9.0 0.00 0.00 0.00 32 1001.9
20260505202204 85 181 4.0 16.0 0.00 0.00 0.00 31 1001.8
20260505201656 85 179 4.0 16.0 0.00 0.00 0.00 29 1001.8
20260505201151 86 195 3.0 14.0 0.00 0.00 0.00 28 1001.8
20260505200644 85 154 5.0 18.0 0.00 0.00 0.00 31 1001.9
20260505200139 85 155 4.0 18.0 0.00 0.00 0.00 30 1001.9
20260505195634 85 230 3.0 16.0 0.00 0.00 0.00 31 1002.0
20260505195127 85 198 5.0 11.0 0.00 0.00 0.00 31 1002.1
20260505194621 85 222 5.0 17.0 0.00 0.00 0.00 29 1002.2
20260505194114 85 355 4.0 17.0 0.00 0.00 0.00 29 1002.2
20260505193609 86 229 2.0 7.0 0.00 0.00 0.00 33 1002.2
20260505193325 85 96 3.0 13.0 0.00 0.00 0.00 33 1002.3
20260505192819 85 232 4.0 13.0 0.00 0.00 0.00 36 1002.4
20260505192051 85 252 4.0 15.0 0.00 0.00 0.00 33 1002.7
20260505191545 85 295 5.0 15.0 0.00 0.00 0.00 29 1002.6
20260505191038 85 131 4.0 14.0 0.00 0.00 0.00 35 1002.8
20260505190535 85 86 3.0 12.0 0.00 0.00 0.00 35 1002.9
20260505190026 85 231 2.0 12.0 0.00 0.00 0.00 34 1002.9
20260505185520 85 255 2.0 8.0 0.00 0.00 0.00 34 1003.0
20260505185019 85 297 3.0 8.0 0.00 0.00 0.00 37 1003.2
20260505184519 84 210 3.0 13.0 0.00 0.00 0.00 39 1003.2
20260505184019 84 209 4.0 13.0 0.00 0.00 0.00 34 1003.3
20260505183519 84 274 4.0 17.0 0.00 0.00 0.00 33 1003.3
20260505183018 84 212 3.0 17.0 0.00 0.00 0.00 33 1003.4
20260505182737 84 284 3.0 8.0 0.00 0.00 0.00 33 1003.5
20260505182244 84 238 4.0 11.0 0.00 0.00 0.00 33 1003.5
20260505181519 84 123 4.0 11.0 0.00 0.00 0.00 32 1003.5
20260505181019 84 200 2.0 10.0 0.00 0.00 0.00 35 1003.7
20260505180519 84 255 2.0 12.0 0.00 0.00 0.00 36 1003.6
20260505180018 83 231 4.0 16.0 0.00 0.00 0.00 37 1003.7
20260505175518 83 139 3.0 16.0 0.00 0.00 0.00 33 1003.7
20260505175019 83 208 3.0 11.0 0.00 0.00 0.00 38 1003.7
20260505174519 83 222 3.0 11.0 0.00 0.00 0.00 35 1003.8
20260505174235 82 229 3.0 15.0 0.00 0.00 0.00 39 1003.7
20260505173517 82 189 4.0 15.0 0.00 0.00 0.00 36 1003.8
20260505173015 83 250 3.0 9.0 0.00 0.00 0.00 38 1003.9
20260505172015 82 227 2.0 7.0 0.00 0.00 0.00 39 1003.8
20260505171515 82 250 2.0 6.0 0.00 0.00 0.00 38 1003.8
20260505171014 82 120 2.0 6.0 0.00 0.00 0.00 38 1003.9
20260505170515 81 311 2.0 7.0 0.00 0.00 0.00 40 1004.0
20260505170015 81 225 2.0 8.0 0.00 0.00 0.00 39 1004.0
20260505165515 81 186 2.0 8.0 0.00 0.00 0.00 42 1004.1
20260505165014 80 227 1.0 8.0 0.00 0.00 0.00 45 1004.2
20260505164514 80 96 2.0 8.0 0.00 0.00 0.00 43 1004.3
20260505164013 80 269 2.0 8.0 0.00 0.00 0.00 42 1004.5
20260505163514 79 141 3.0 15.0 0.00 0.00 0.00 44 1004.5
20260505163014 79 121 4.0 15.0 0.00 0.00 0.00 43 1004.5
20260505162510 79 225 3.0 11.0 0.00 0.00 0.00 45 1004.5
20260505162010 79 259 2.0 7.0 0.00 0.00 0.00 44 1004.6
20260505161511 78 268 2.0 8.0 0.00 0.00 0.00 46 1004.7
20260505161011 78 300 3.0 10.0 0.00 0.00 0.00 45 1004.6
20260505160726 78 219 3.0 10.0 0.00 0.00 0.00 45 1004.8
20260505153006 77 237 2.0 7.0 0.00 0.00 0.00 48 1005.0
20260505152725 77 181 2.0 7.0 0.00 0.00 0.00 50 1004.9
20260505152005 76 217 2.0 10.0 0.00 0.00 0.00 48 1004.9
20260505151504 76 239 2.0 10.0 0.00 0.00 0.00 48 1004.9
20260505151004 76 179 2.0 10.0 0.00 0.00 0.00 50 1004.9
20260505150504 76 205 2.0 10.0 0.00 0.00 0.00 49 1004.9
20260505140458 72 213 3.0 8.0 0.00 0.00 0.00 52 1004.9
20260505124954 66 237 3.0 10.0 0.00 0.00 0.00 61 1005.1
20260505124455 66 207 3.0 10.0 0.00 0.00 0.00 62 1005.1
20260505124224 65 207 2.0 8.0 0.00 0.00 0.00 62 1005.1
20260505123718 65 207 2.0 7.0 0.00 0.00 0.00 63 1005.1
20260505122954 65 250 2.0 7.0 0.00 0.00 0.00 64 1005.2
20260505122453 64 232 3.0 7.0 0.00 0.00 0.00 64 1005.1
20260505121951 64 226 3.0 7.0 0.00 0.00 0.00 64 1005.1
20260505121445 64 246 3.0 7.0 0.00 0.00 0.00 64 1005.1
20260505120941 64 193 3.0 6.0 0.00 0.00 0.00 64 1005.0
20260505120439 63 193 2.0 8.0 0.00 0.00 0.00 65 1005.0
20260505115939 63 255 2.0 8.0 0.00 0.00 0.00 65 1004.9
20260505115659 63 210 3.0 6.0 0.00 0.00 0.00 65 1004.9
20260505114937 63 182 3.0 7.0 0.00 0.00 0.00 65 1004.9
20260505114434 63 215 3.0 7.0 0.00 0.00 0.00 65 1004.8
20260505114154 62 217 2.0 6.0 0.00 0.00 0.00 65 1004.8
20260505113433 62 220 2.0 7.0 0.00 0.00 0.00 66 1004.8
20260505112930 62 297 2.0 7.0 0.00 0.00 0.00 66 1004.7
20260505112431 62 227 2.0 7.0 0.00 0.00 0.00 66 1004.6
20260505111928 62 221 2.0 7.0 0.00 0.00 0.00 66 1004.7
20260505111650 61 164 3.0 9.0 0.00 0.00 0.00 65 1004.7
20260505111155 61 221 2.0 9.0 0.00 0.00 0.00 65 1004.6
20260505110426 61 217 2.0 7.0 0.00 0.00 0.00 65 1004.6
20260505101850 61 222 2.0 8.0 0.00 0.00 0.00 64 1004.3
20260505101344 61 285 2.0 8.0 0.00 0.00 0.00 64 1004.2
20260505101104 60 178 3.0 6.0 0.00 0.00 0.00 64 1004.2
20260505100336 60 243 2.0 6.0 0.00 0.00 0.00 65 1004.2
20260505095836 60 224 1.0 6.0 0.00 0.00 0.00 65 1004.1
20260505095337 60 246 1.0 4.0 0.00 0.00 0.00 65 1004.1
20260505094836 60 200 1.0 4.0 0.00 0.00 0.00 65 1004.0
20260505094337 60 202 0.0 3.0 0.00 0.00 0.00 65 1004.0
20260505093836 60 203 1.0 7.0 0.00 0.00 0.00 65 1004.0
20260505093600 60 8 1.0 7.0 0.00 0.00 0.00 64 1003.9
20260505092836 60 215 1.0 6.0 0.00 0.00 0.00 65 1003.9
20260505092335 60 211 1.0 5.0 0.00 0.00 0.00 64 1003.9
20260505091330 61 206 2.0 8.0 0.00 0.00 0.00 64 1003.9
20260505090830 61 184 2.0 8.0 0.00 0.00 0.00 64 1003.9
20260505090330 61 214 2.0 7.0 0.00 0.00 0.00 64 1003.9
20260505085830 61 217 1.0 7.0 0.00 0.00 0.00 64 1004.0
20260505085557 61 189 1.0 6.0 0.00 0.00 0.00 64 1003.9
20260505084829 61 140 1.0 5.0 0.00 0.00 0.00 64 1003.9
20260505084326 61 215 1.0 7.0 0.00 0.00 0.00 63 1003.8
20260505083824 61 236 2.0 7.0 0.00 0.00 0.00 63 1003.8
20260505083327 61 233 2.0 7.0 0.00 0.00 0.00 63 1003.9
20260505082820 61 234 2.0 7.0 0.00 0.00 0.00 63 1003.9
20260505082314 61 249 2.0 6.0 0.00 0.00 0.00 64 1003.8
20260505081808 61 219 2.0 6.0 0.00 0.00 0.00 64 1003.8
20260505081302 61 230 1.0 5.0 0.00 0.00 0.00 64 1003.8
20260505080756 61 240 1.0 9.0 0.00 0.00 0.00 64 1003.8
20260505080250 61 257 1.0 9.0 0.00 0.00 0.00 65 1003.7
20260505075744 61 194 0.0 4.0 0.00 0.00 0.00 64 1003.8
20260505075238 61 224 1.0 6.0 0.00 0.00 0.00 64 1003.8
20260505074732 62 188 2.0 8.0 0.00 0.00 0.00 64 1003.7
20260505074225 62 229 2.0 8.0 0.00 0.00 0.00 64 1003.7
20260505073720 62 150 2.0 7.0 0.00 0.00 0.00 64 1003.8
20260505073214 61 236 2.0 7.0 0.00 0.00 0.00 64 1003.8
20260505072934 61 212 2.0 9.0 0.00 0.00 0.00 64 1003.8
20260505072202 61 262 1.0 9.0 0.00 0.00 0.00 64 1003.8
20260505071917 61 224 1.0 7.0 0.00 0.00 0.00 64 1003.7
20260505071411 61 200 1.0 6.0 0.00 0.00 0.00 64 1003.7
20260505070644 61 286 1.0 5.0 0.00 0.00 0.00 64 1003.7
20260505070138 61 211 2.0 7.0 0.00 0.00 0.00 64 1003.7
20260505065633 61 243 1.0 7.0 0.00 0.00 0.00 65 1003.7
20260505064114 60 225 1.0 6.0 0.00 0.00 0.00 67 1003.6
20260505063609 59 251 1.0 6.0 0.00 0.00 0.00 67 1003.7
20260505063103 58 250 0.0 4.0 0.00 0.00 0.00 69 1003.7
20260505062557 58 227 0.0 2.0 0.00 0.00 0.00 69 1003.7
20260505062050 58 280 0.0 0.0 0.00 0.00 0.00 69 1003.7
20260505061544 58 281 0.0 1.0 0.00 0.00 0.00 69 1003.6
20260505061039 58 281 0.0 1.0 0.00 0.00 0.00 69 1003.6
20260505060532 59 301 0.0 1.0 0.00 0.00 0.00 68 1003.7
20260505060026 59 179 0.0 1.0 0.00 0.00 0.00 67 1003.7
20260505055737 59 179 0.0 1.0 0.00 0.00 0.00 66 1003.6
20260505055014 60 180 0.0 0.0 0.00 0.00 0.00 65 1003.7
20260505054726 60 180 0.0 0.0 0.00 0.00 0.00 65 1003.6
20260505054003 60 180 0.0 0.0 0.00 0.00 0.00 64 1003.6
20260505053456 60 180 0.0 0.0 0.00 0.00 0.00 63 1003.7
20260505052950 61 180 0.0 0.0 0.00 0.00 0.00 63 1003.7
20260505052444 61 180 0.0 1.0 0.00 0.00 0.00 62 1003.7
20260505051938 62 180 0.0 5.0 0.00 0.00 0.00 62 1003.8
20260505051432 61 181 1.0 5.0 0.00 0.00 0.00 62 1003.8
20260505050927 61 257 1.0 4.0 0.00 0.00 0.00 62 1003.8
20260505050420 61 274 0.0 4.0 0.00 0.00 0.00 63 1003.8
20260505041321 60 214 0.0 1.0 0.00 0.00 0.00 64 1003.6
20260505040815 60 214 0.0 1.0 0.00 0.00 0.00 64 1003.6
20260505040308 60 214 0.0 1.0 0.00 0.00 0.00 64 1003.6
20260505035801 60 223 0.0 1.0 0.00 0.00 0.00 64 1003.5
20260505035257 60 223 0.0 1.0 0.00 0.00 0.00 65 1003.5
20260505034750 60 223 0.0 1.0 0.00 0.00 0.00 65 1003.5
20260505034501 60 240 0.0 0.0 0.00 0.00 0.00 66 1003.6
20260505033232 59 240 0.0 1.0 0.00 0.00 0.00 66 1003.5
20260505032727 59 240 0.0 0.0 0.00 0.00 0.00 67 1003.5
20260505032219 59 240 0.0 0.0 0.00 0.00 0.00 67 1003.5
20260505031713 59 240 0.0 2.0 0.00 0.00 0.00 68 1003.5
20260505031207 59 240 0.0 2.0 0.00 0.00 0.00 69 1003.5
20260505030701 58 245 0.0 1.0 0.00 0.00 0.00 70 1003.5
20260505030154 58 193 0.0 0.0 0.00 0.00 0.00 71 1003.6
20260505025647 59 193 0.0 0.0 0.00 0.00 0.00 72 1003.6
20260505025141 59 193 0.0 0.0 0.00 0.00 0.00 72 1003.6
20260505024636 59 193 0.0 0.0 0.00 0.00 0.00 72 1003.6
20260505024129 59 193 0.0 0.0 0.00 0.00 0.00 71 1003.5
20260505023849 59 193 0.0 1.0 0.00 0.00 0.00 69 1003.6
20260505023336 60 193 0.0 1.0 0.00 0.00 0.00 68 1003.4
20260505022611 60 193 0.0 0.0 0.00 0.00 0.00 66 1003.6
20260505022107 60 193 0.0 0.0 0.00 0.00 0.00 66 1003.5
20260505021600 60 193 0.0 0.0 0.00 0.00 0.00 64 1003.5
20260505021054 60 193 0.0 0.0 0.00 0.00 0.00 64 1003.4
20260505020547 60 193 0.0 0.0 0.00 0.00 0.00 64 1003.4
20260505020041 60 193 0.0 0.0 0.00 0.00 0.00 63 1003.3
20260505015533 61 193 0.0 0.0 0.00 0.00 0.00 63 1003.4
20260505015027 61 193 0.0 0.0 0.00 0.00 0.00 63 1003.4
20260505014521 60 193 0.0 0.0 0.00 0.00 0.00 63 1003.4
20260505014016 60 193 0.0 0.0 0.00 0.00 0.00 65 1003.4
20260505013510 60 193 0.0 0.0 0.00 0.00 0.00 66 1003.3
20260505013004 60 193 0.0 0.0 0.00 0.00 0.00 68 1003.3
20260505012457 59 193 0.0 0.0 0.00 0.00 0.00 69 1003.3
20260505011952 60 193 0.0 0.0 0.00 0.00 0.00 70 1003.2
20260505011446 60 193 0.0 0.0 0.00 0.00 0.00 70 1003.1
20260505010940 60 193 0.0 0.0 0.00 0.00 0.00 70 1003.1
20260505010433 61 193 0.0 0.0 0.00 0.00 0.00 70 1003.0
20260505005927 61 193 0.0 0.0 0.00 0.00 0.00 70 1003.0
20260505005421 62 193 0.0 0.0 0.00 0.00 0.00 70 1002.9
20260505004916 62 193 0.0 0.0 0.00 0.00 0.00 70 1002.9
20260505004409 62 193 0.0 0.0 0.00 0.00 0.00 70 1002.9
20260505003903 62 193 0.0 0.0 0.00 0.00 0.00 69 1002.9
20260505003357 62 193 0.0 0.0 0.00 0.00 0.00 68 1002.9
20260505002851 63 193 0.0 0.0 0.00 0.00 0.00 67 1002.9
20260505002346 63 193 0.0 0.0 0.00 0.00 0.00 67 1002.9
20260505001839 63 193 0.0 0.0 0.00 0.00 0.00 67 1002.9
20260505001333 63 193 0.0 0.0 0.00 0.00 0.00 66 1002.9
20260505000828 64 193 0.0 0.0 0.00 0.00 0.00 65 1003.0
20260505000322 64 193 0.0 0.0 0.00 0.00 0.00 63 1002.9
20260504235817 65 193 0.0 0.0 0.00 0.00 0.00 62 1002.8
20260504235535 65 193 0.0 0.0 0.00 0.00 0.00 61 1002.9
20260504234804 66 193 0.0 0.0 0.00 0.00 0.00 60 1002.9
20260504234257 66 193 0.0 0.0 0.00 0.00 0.00 59 1002.8
20260504234011 67 193 0.0 0.0 0.00 0.00 0.00 57 1002.7
20260504233511 68 193 0.0 0.0 0.00 0.00 0.00 56 1002.7
20260504232739 69 193 0.0 0.0 0.00 0.00 0.00 55 1002.6
20260504232233 70 193 0.0 0.0 0.00 0.00 0.00 52 1002.6
20260504231727 71 193 0.0 0.0 0.00 0.00 0.00 51 1002.6
20260504231448 72 193 0.0 0.0 0.00 0.00 0.00 49 1002.7
20260504230717 72 193 0.0 0.0 0.00 0.00 0.00 47 1002.7
20260504230427 73 193 0.0 0.0 0.00 0.00 0.00 48 1002.7
20260504225703 73 193 0.0 0.0 0.00 0.00 0.00 48 1002.7
20260504225158 73 193 0.0 0.0 0.00 0.00 0.00 48 1002.6
20260504224651 73 193 0.0 0.0 0.00 0.00 0.00 48 1002.6
20260504224147 73 288 0.0 1.0 0.00 0.00 0.00 46 1002.6
20260504223639 73 290 0.0 1.0 0.00 0.00 0.00 46 1002.6
20260504223133 73 273 0.0 2.0 0.00 0.00 0.00 45 1002.7
20260504222627 73 303 0.0 2.0 0.00 0.00 0.00 45 1002.7
20260504222346 73 89 0.0 3.0 0.00 0.00 0.00 44 1002.6
20260504221617 74 49 0.0 2.0 0.00 0.00 0.00 44 1002.6